DateTimeUTC,F1_A11,F1_S11,BsB_S11,BsG_S11,BsR_S11,BbsB_S11,BbsG_S11,BbsR_S11,BaB_A11,BaG_A11,BaR_A11,Tu_S11,T_S11,Uu_S11,U_S11,P_S11,T1_A11
2021-09-01T05:00:00Z,00040200,20000000,,,,,,,-000.71,-000.05,-000.70,18.1,25.1,02.0,01.3,0673.2,30.9
2021-09-01T05:01:00Z,00040200,20000000,,,,,,,0000.05,0000.20,0000.25,18.2,25.1,02.0,01.3,0673.2,30.9
2021-09-01T05:02:00Z,00040200,20000000,,,,,,,-000.02,-000.18,-000.19,18.2,25.1,01.7,01.1,0673.2,31.0
2021-09-01T05:03:00Z,00040200,60000000,,,,,,,0000.14,-000.38,0000.08,18.3,25.1,01.7,01.1,0673.2,31.0
2021-09-01T05:04:00Z,00040200,41000000,0004.06,0002.85,0002.16,0000.19,0000.40,0000.33,0000.41,0000.81,0000.21,18.8,25.1,01.5,01.0,0674.1,31.0
2021-09-01T05:05:00Z,00040200,01000000,0003.57,0002.71,0002.57,-000.16,0000.53,0000.91,0000.28,0000.10,0000.16,18.9,25.1,01.4,00.9,0674.1,31.0
2021-09-01T05:06:00Z,00040200,01000000,0003.86,0003.26,0002.07,0000.34,0000.66,0000.22,0000.38,0000.55,0000.08,18.8,25.1,01.4,01.0,0674.2,31.0
2021-09-01T05:07:00Z,00040200,01000000,0004.82,0003.09,0002.22,0000.52,0000.53,0000.55,0000.41,0000.68,0000.38,18.8,25.1,01.4,00.9,0674.2,31.0
2021-09-01T05:08:00Z,00040200,01000000,0004.04,0002.70,0002.60,0000.66,0000.70,0000.43,0000.61,0000.58,0000.78,18.7,25.0,01.4,01.0,0674.2,30.9
2021-09-01T05:09:00Z,00040200,01000000,0004.48,0002.88,0002.33,0000.32,0000.72,0000.38,0000.74,0000.16,0000.48,18.7,25.0,01.4,00.9,0674.1,30.9
2021-09-01T05:10:00Z,00040200,01000000,0003.83,0002.93,0002.15,0000.86,0000.38,0000.64,0000.34,0000.28,0000.02,18.6,25.0,01.3,00.9,0674.2,30.9
2021-09-01T05:11:00Z,00040200,01000000,0003.72,0003.43,0002.42,0000.73,0000.49,0000.18,0000.20,0000.50,0000.34,18.6,25.0,01.4,00.9,0674.2,31.0
2021-09-01T05:12:00Z,00040200,01000000,0004.44,0003.04,0002.34,0000.63,0000.74,0000.61,0001.01,0000.47,0000.84,18.5,24.9,01.3,00.9,0674.3,30.9
2021-09-01T05:13:00Z,00040200,01000000,0005.08,0003.11,0002.39,0001.04,0000.45,0000.51,0000.96,0001.13,0000.36,18.5,24.9,01.3,00.9,0674.3,30.9
2021-09-01T05:14:00Z,00040200,01000000,0003.58,0003.52,0002.24,0000.75,0000.52,0000.90,0000.85,0000.83,0001.07,18.5,24.9,01.2,00.8,0674.3,30.9
2021-09-01T05:15:00Z,00040200,01000000,0004.80,0002.78,0002.31,0000.42,0000.51,0000.75,0000.36,0000.24,0000.18,18.6,24.9,01.2,00.8,0674.3,30.9
2021-09-01T05:16:00Z,00040200,01000000,0004.20,0003.23,0002.26,0000.57,0000.86,0000.38,0000.86,0001.02,0000.70,18.7,25.0,01.2,00.8,0674.3,31.0
2021-09-01T05:17:00Z,00040200,01000000,0004.26,0003.38,0002.40,0000.80,0000.48,0000.49,0000.96,0000.62,0000.44,18.8,25.0,01.3,00.9,0674.4,31.0
2021-09-01T05:18:00Z,00040200,01000000,0004.70,0003.46,0002.45,0000.70,0000.72,0000.83,0000.35,0000.78,0000.54,18.9,25.1,01.2,00.8,0674.3,31.0
2021-09-01T05:19:00Z,00040200,01000000,0003.96,0003.35,0002.28,0000.47,0000.70,0000.21,0000.81,0000.62,0000.49,19.0,25.1,01.1,00.7,0674.4,31.0
2021-09-01T05:20:00Z,00040200,01000000,0004.30,0002.86,0001.74,0000.34,0000.87,0000.19,0000.19,-000.08,0000.06,19.0,25.1,01.1,00.8,0674.3,31.0
2021-09-01T05:21:00Z,00040200,01000000,0004.35,0002.97,0002.00,0000.27,0000.34,0000.62,0000.63,0000.32,0000.20,18.9,25.1,01.0,00.7,0674.3,31.0
2021-09-01T05:22:00Z,00040200,01000000,0003.60,0002.86,0001.78,0000.68,0000.41,0000.36,-000.06,0000.31,0000.50,18.8,25.1,00.9,00.6,0674.3,31.0
2021-09-01T05:23:00Z,00040200,01000000,0003.26,0002.69,0001.57,0000.39,0000.68,0000.04,0000.77,0000.33,0000.22,18.8,25.1,01.0,00.7,0674.3,31.0
2021-09-01T05:24:00Z,00040200,01000000,0003.70,0002.53,0001.88,0000.26,0000.39,0000.62,0000.26,0000.42,0000.26,18.7,25.0,00.9,00.6,0674.3,31.0
2021-09-01T05:25:00Z,00040200,01000000,0003.73,0002.26,0001.74,0000.58,0000.09,0000.47,0000.30,0000.19,0000.49,18.6,25.0,00.9,00.6,0674.3,31.0
2021-09-01T05:26:00Z,00040200,01000000,0004.00,0002.88,0001.91,0000.03,0000.61,0000.56,0000.70,0000.74,0000.35,18.6,25.0,00.9,00.6,0674.2,30.9
2021-09-01T05:27:00Z,00040200,01000000,0004.20,0002.83,0002.18,0000.29,0000.39,0000.30,0000.27,0000.36,0000.03,18.5,25.0,00.8,00.6,0674.3,30.9
2021-09-01T05:28:00Z,00040200,01000000,0003.84,0002.52,0001.61,0000.52,0000.51,0000.60,0001.25,0001.03,0001.07,18.5,24.9,00.8,00.5,0674.4,30.9
2021-09-01T05:29:00Z,00040200,01000000,0004.06,0002.38,0001.70,-000.01,0000.56,0000.24,0000.61,0000.60,0000.56,18.5,24.9,00.8,00.6,0674.4,30.9
2021-09-01T05:30:00Z,00040200,01000000,0004.07,0002.35,0001.87,0000.45,0000.71,0000.15,0000.60,0000.94,0000.54,18.6,24.9,00.8,00.5,0674.4,30.9
2021-09-01T05:31:00Z,00040200,01000000,0003.59,0002.89,0001.70,0000.74,0000.25,0000.48,0000.70,-000.01,0000.19,18.7,25.0,00.8,00.6,0674.4,31.0
2021-09-01T05:32:00Z,00040200,01000000,0003.18,0002.57,0001.94,0000.57,0000.46,0000.34,0000.81,0000.87,0000.66,18.8,25.0,00.7,00.5,0674.4,30.9
2021-09-01T05:33:00Z,00040200,01000000,0004.91,0003.06,0002.03,0000.52,0000.51,0000.49,0000.48,0000.78,0000.47,18.8,25.1,00.9,00.6,0674.4,31.0
2021-09-01T05:34:00Z,00040200,01000000,0004.16,0002.89,0002.26,0000.47,0000.54,0000.87,0000.66,0000.51,0000.18,18.9,25.1,00.8,00.6,0674.4,31.0
2021-09-01T05:35:00Z,00040200,01000000,0003.79,0002.84,0002.25,0000.67,0000.47,0000.56,0000.57,0000.61,0000.85,18.9,25.1,00.7,00.5,0674.5,31.0
2021-09-01T05:36:00Z,00040200,01000000,0003.76,0002.67,0002.16,0001.08,0000.14,0000.28,0000.79,0000.74,0000.39,18.9,25.1,00.7,00.5,0674.5,31.0
2021-09-01T05:37:00Z,00040200,01000000,0003.74,0002.71,0002.17,0001.01,0000.20,0000.68,0000.40,0000.01,0000.11,18.8,25.1,00.8,00.5,0674.4,31.0
2021-09-01T05:38:00Z,00040200,01000000,0003.94,0003.24,0001.97,0000.43,0000.48,0000.22,0000.35,0000.76,0000.40,18.7,25.1,00.7,00.5,0674.5,31.0
2021-09-01T05:39:00Z,00040200,01000000,0003.96,0002.96,0001.96,0000.86,0000.59,0000.54,0000.74,0000.31,0000.63,18.7,25.0,00.8,00.5,0674.4,31.0
2021-09-01T05:40:00Z,00040200,01000000,0004.96,0002.99,0001.93,0000.60,0000.45,0000.32,0000.45,0000.54,0000.12,18.6,25.0,00.8,00.5,0674.4,30.9
2021-09-01T05:41:00Z,00040200,01000000,0003.85,0003.29,0001.88,0000.92,0000.76,0000.40,0000.25,0000.47,0000.11,18.5,24.9,00.7,00.5,0674.4,30.9
2021-09-01T05:42:00Z,00040200,01000000,0004.46,0003.25,0001.83,0000.51,0000.58,0000.39,0000.39,0000.11,0000.64,18.5,24.9,00.6,00.4,0674.4,30.9
2021-09-01T05:43:00Z,00040200,01000000,0004.10,0002.39,0001.64,0000.15,0000.29,0000.76,0000.75,0000.63,0000.41,18.5,24.9,00.5,00.3,0674.4,30.9
2021-09-01T05:44:00Z,00040200,01000000,0003.67,0002.80,0001.79,0000.46,0000.43,0000.36,0000.65,0000.70,0000.59,18.5,24.9,00.5,00.4,0674.4,30.9
2021-09-01T05:45:00Z,00040200,01000000,0003.34,0002.38,0001.83,0000.55,0000.64,0000.27,0000.50,0000.50,0000.21,18.5,24.9,00.5,00.3,0674.4,30.9
2021-09-01T05:46:00Z,00040200,01000000,0003.57,0002.89,0001.63,0000.97,0000.25,0000.54,0000.59,0000.36,0000.39,18.6,24.9,00.5,00.3,0674.5,30.9
2021-09-01T05:47:00Z,00040200,01000000,0003.62,0002.30,0001.76,0000.67,0000.08,0000.53,0000.49,0000.41,0000.24,18.7,25.0,00.5,00.3,0674.5,31.0
2021-09-01T05:48:00Z,00040200,01000000,0002.54,0002.44,0001.72,-000.05,0000.31,0000.57,0000.58,0000.73,0000.51,18.8,25.0,00.4,00.3,0674.6,31.0
2021-09-01T05:49:00Z,00040200,01000000,0003.32,0002.25,0001.76,0000.84,0000.39,0000.63,0000.16,0000.32,0000.31,18.9,25.1,00.4,00.3,0674.6,31.0
2021-09-01T05:50:00Z,00040200,01000000,0003.87,0002.86,0001.63,0000.85,0000.64,0000.26,0000.59,0000.09,0000.14,19.0,25.1,00.4,00.3,0674.6,31.0
2021-09-01T05:51:00Z,00040200,01000000,0003.98,0003.26,0001.98,0000.09,0000.66,0000.55,0000.16,0000.30,0000.67,19.0,25.1,00.4,00.3,0674.6,31.0
2021-09-01T05:52:00Z,00040200,01000000,0004.83,0002.74,0001.52,0000.66,0000.52,0000.33,0000.36,0000.40,0000.08,19.0,25.1,00.2,00.1,0674.6,31.0
2021-09-01T05:53:00Z,00040200,01000000,0004.46,0002.54,0001.69,0000.27,0000.50,0000.35,0000.60,0000.68,0000.47,18.9,25.1,00.3,00.2,0674.6,31.0
2021-09-01T05:54:00Z,00040200,01000000,0004.09,0002.53,0001.47,0000.65,0000.44,0000.40,0000.59,0000.20,0000.19,18.8,25.1,00.3,00.2,0674.6,30.9
2021-09-01T05:55:00Z,00040200,01000000,0003.86,0003.01,0001.91,-000.17,0000.55,0000.33,0000.23,0000.50,0000.22,18.7,25.1,00.2,00.2,0674.7,30.9
2021-09-01T05:56:00Z,00040200,01000000,0003.21,0002.21,0002.03,0000.87,0000.54,0000.49,0000.38,0000.26,0000.49,18.7,25.0,00.2,00.2,0674.6,30.9
2021-09-01T05:57:00Z,00040200,41000000,,,,,,,0002.13,0001.97,0001.27,18.7,25.0,,00.0,0674.6,30.9
2021-09-01T05:58:00Z,00040200,61000000,,,,,,,-000.92,-000.83,-000.43,18.3,25.1,00.4,00.2,0673.7,30.9
2021-09-01T05:59:00Z,00040200,21000000,,,,,,,-000.49,-000.38,-000.35,18.3,25.2,00.3,00.2,0673.7,30.9
